Theta_e
326 326 333 334 333 319 322 319 317 318 318 316 314 314 313 313 316 312 321 327 323 322 326 326 325 328 328 327 325 324 323 323 324 324 324 323 325 327 329 331 332 332 333 332 332 334 335 336 337
323 329 331 326 329 318 318 314 317 316 316 313 315 316 316 317 319 319 319 321 320 320 319 323 325 326 326 326 325 326 328 329 328 327 324 324 325 327 328 329 330 330 332 332 331 332 333 335 337
327 333 332 330 324 328 318 313 315 316 314 315 315 316 318 319 318 319 320 320 318 316 316 319 319 323 327 334 333 329 330 330 329 328 325 324 325 327 328 328 329 330 330 330 330 332 332 333 336
330 330 322 331 331 322 316 314 315 315 315 312 315 319 319 319 319 319 318 318 316 315 315 317 322 327 328 334 334 332 331 330 328 327 327 325 325 326 327 327 327 329 330 329 331 331 331 332 334
329 322 328 328 326 314 312 313 312 314 314 314 317 319 319 318 319 318 317 316 315 314 315 320 324 328 335 334 332 330 328 326 325 325 325 326 325 326 326 326 326 327 328 329 329 332 331 332 335
324 322 330 332 328 317 314 313 313 314 314 317 318 318 318 318 318 317 317 318 317 317 318 317 321 324 325 327 327 325 325 324 324 324 324 326 326 326 325 327 326 325 326 329 328 330 331 331 333
326 326 330 330 328 315 316 312 313 314 314 315 316 317 316 315 315 315 315 313 313 313 315 316 315 316 323 327 321 319 320 324 326 324 325 326 325 326 326 324 326 326 326 328 329 330 330 332 331
324 325 326 319 318 315 315 313 314 314 314 315 316 316 315 313 313 313 314 315 315 315 318 319 317 317 319 318 318 320 321 322 324 323 323 324 324 324 326 326 325 326 326 328 329 331 332 330 331
318 324 325 324 316 315 314 314 313 315 315 316 315 314 313 313 313 313 314 316 318 319 320 321 319 318 318 319 319 320 319 320 322 320 320 320 320 321 322 324 324 326 326 328 329 331 332 332 330
321 322 324 320 314 315 314 313 314 317 317 315 314 313 312 313 313 314 315 317 319 320 320 320 319 318 319 319 320 319 319 320 319 319 319 318 316 317 320 322 323 325 326 328 329 331 332 333 330
320 324 321 319 314 313 313 313 314 316 317 314 313 313 312 312 313 314 316 318 320 319 319 318 319 319 321 320 320 319 319 318 318 318 319 319 320 317 320 321 322 323 325 327 329 331 332 331 330
322 320 319 319 317 312 313 313 317 315 315 315 312 312 311 312 312 314 317 319 320 319 319 318 319 321 321 320 320 320 319 318 319 318 319 320 319 320 316 318 322 323 323 325 326 326 328 329 330
321 319 317 316 312 314 313 315 316 316 316 314 311 312 312 311 313 316 318 321 320 318 319 318 319 320 322 320 322 322 321 320 321 320 321 320 321 321 318 319 320 320 323 324 325 326 327 328 330
320 317 317 314 314 314 315 315 317 316 315 314 312 312 312 312 314 316 319 320 320 318 318 318 320 321 321 321 322 322 322 321 321 321 320 321 321 322 322 322 321 322 323 324 325 326 326 327 330
317 319 316 316 314 315 314 315 316 316 314 313 312 312 312 312 314 317 320 320 320 318 318 318 322 322 322 321 322 323 322 321 322 320 320 320 321 322 323 323 323 323 324 324 325 325 325 327 330
318 316 317 317 314 315 314 316 315 314 314 313 312 312 312 312 314 318 321 320 320 318 319 320 323 323 322 322 324 324 324 323 323 323 323 323 323 323 323 323 323 323 324 325 326 325 326 327 331
316 320 318 318 314 315 314 316 315 314 314 314 312 313 313 313 315 319 321 321 320 318 318 322 323 324 325 324 324 325 325 325 324 324 324 324 324 324 324 324 324 323 324 325 325 326 326 328 331
320 319 318 318 318 315 315 314 314 316 315 315 312 313 313 314 315 319 321 321 320 319 318 318 322 323 323 324 325 325 325 325 324 324 324 324 324 325 325 325 325 325 326 325 326 326 326 329 331
319 319 319 320 318 316 316 315 316 315 314 314 312 312 313 314 314 318 320 321 321 321 319 318 322 323 323 323 324 325 325 326 325 324 324 322 323 324 324 322 321 324 326 327 326 326 328 330 331
317 318 318 317 317 315 317 316 315 315 315 314 312 312 313 313 314 317 320 321 321 319 321 317 320 322 323 324 324 325 326 325 325 324 324 324 325 323 325 325 325 327 327 327 327 328 329 330 330
318 319 318 318 318 315 315 315 315 315 315 316 312 312 312 313 314 315 317 319 320 318 318 320 315 316 317 325 325 325 326 326 326 321 325 327 324 325 327 327 327 328 327 328 328 329 330 330 330
320 318 319 318 318 318 315 317 315 316 316 318 312 311 312 312 313 314 315 315 321 321 318 317 317 317 317 325 326 326 326 326 326 326 326 326 327 327 327 327 327 327 328 328 328 329 330 330 329
320 319 318 318 317 316 317 315 315 319 320 317 315 312 311 311 313 314 314 316 321 322 320 320 320 319 319 326 325 325 325 326 327 326 326 325 326 326 326 326 326 327 327 326 328 329 329 329 329
319 318 315 315 314 316 315 316 315 316 319 318 317 312 312 311 312 314 316 316 318 323 321 320 324 319 322 325 323 320 321 321 325 327 326 323 324 325 326 327 327 327 328 328 328 327 328 329 329
316 314 317 317 317 320 317 317 316 317 317 318 319 314 312 312 312 314 313 314 316 322 321 321 324 320 321 324 325 322 321 322 324 326 328 327 328 327 327 327 327 328 328 328 328 327 327 328 328
314 314 316 318 316 315 318 321 320 318 320 320 319 315 312 312 313 314 313 315 317 319 324 323 322 321 318 322 325 320 320 321 321 325 329 329 328 328 328 325 327 328 328 327 328 328 328 327 328
317 315 314 315 317 319 318 320 322 325 324 321 316 314 313 313 312 314 314 315 317 318 322 324 324 321 319 319 321 320 319 319 319 319 325 328 327 328 328 328 329 329 329 327 327 327 328 328 327
317 315 317 313 319 320 318 322 325 322 325 323 319 314 313 312 312 313 314 315 317 319 319 322 324 320 319 319 319 319 319 318 318 319 320 325 324 323 322 325 327 328 330 329 328 329 328 328 326
318 319 318 313 314 317 318 321 320 325 327 327 321 314 313 313 313 313 314 316 317 317 319 320 324 320 320 318 319 319 318 317 318 320 319 321 321 321 322 324 326 327 327 327 328 327 328 328 327
318 318 320 319 319 319 318 321 321 326 327 327 323 315 312 313 314 313 314 315 316 316 318 320 324 319 317 317 318 318 319 317 316 320 319 320 320 319 319 323 326 326 326 326 326 326 324 324 326
Wind_Speed
9 8 3 3 3 4 3 6 1 2 2 2 3 4 7 5 6 5 1 10 3 6 12 17 19 19 17 17 16 17 17 17 16 14 13 12 12 12 12 11 11 11 11 11 10 8 5 4 3
9 5 2 2 4 2 5 4 5 6 3 4 4 2 2 2 2 2 2 7 7 8 8 16 19 20 21 19 18 19 18 17 17 16 15 14 13 12 13 12 12 11 11 12 12 10 8 6 5
7 4 3 4 3 4 5 6 7 3 4 3 3 2 2 2 2 8 5 7 8 6 6 10 14 20 20 18 18 20 18 18 19 18 17 16 15 13 12 12 12 12 12 13 14 12 10 9 7
4 4 4 3 5 6 6 5 4 2 1 4 3 2 1 3 4 7 6 9 10 8 8 12 16 18 17 17 17 19 20 20 21 20 20 18 16 15 13 12 11 11 12 14 14 14 13 11 9
3 3 3 1 5 4 5 4 7 6 1 2 3 3 2 2 3 4 4 6 10 9 8 9 12 13 15 16 18 21 22 24 24 22 22 21 19 18 16 15 14 13 13 14 16 14 15 14 11
3 3 3 3 6 5 5 5 6 5 4 2 3 5 4 2 3 1 1 3 3 2 2 4 8 12 15 16 19 21 23 25 25 25 24 23 21 20 18 17 15 14 14 15 17 17 17 17 14
4 4 4 4 5 5 5 6 5 6 3 4 7 5 2 1 3 6 6 4 3 3 1 3 9 12 15 16 18 19 20 19 18 22 25 23 21 22 21 19 15 14 15 16 18 18 17 16 15
4 4 3 4 5 7 5 5 2 6 6 3 5 5 5 4 11 9 7 4 3 1 2 5 10 10 10 13 17 16 18 18 15 16 17 19 21 23 24 19 16 15 17 16 18 18 18 18 16
3 3 3 5 3 7 1 3 1 1 6 1 1 4 2 17 12 9 5 3 1 3 6 8 7 9 13 16 15 16 16 15 14 17 18 21 22 23 22 21 21 16 16 16 17 18 19 18 15
4 3 7 7 6 6 4 5 7 3 3 1 2 4 12 13 9 6 3 2 4 6 7 6 10 11 15 14 14 14 13 12 11 13 14 15 16 18 22 26 23 17 16 16 16 19 20 18 16
5 5 7 8 8 7 5 2 4 6 4 7 9 8 6 8 8 6 2 1 5 7 7 10 9 11 14 12 13 12 10 11 12 13 12 12 14 13 15 16 18 17 15 15 16 19 20 19 18
3 9 6 7 8 7 6 6 5 5 7 5 8 9 7 7 7 6 3 2 4 6 7 10 7 10 12 10 11 12 12 12 12 10 7 7 8 9 11 14 13 14 14 14 15 19 20 19 19
5 5 1 4 7 4 7 5 4 8 4 5 9 8 9 7 8 6 5 2 5 7 7 9 7 10 12 9 11 13 11 10 8 6 4 3 2 4 9 11 11 12 9 10 13 16 18 18 19
7 5 2 2 1 2 6 1 2 6 6 7 9 9 7 8 10 7 5 2 4 6 7 9 8 9 12 9 11 11 10 6 6 6 5 4 3 5 9 11 11 11 10 9 10 13 16 19 19
3 2 5 1 4 3 4 3 9 4 7 9 9 6 7 7 10 8 5 2 3 5 7 8 9 8 11 7 9 9 8 6 6 4 5 6 5 5 7 9 10 11 11 10 11 13 14 15 17
3 4 3 4 5 3 6 10 6 9 11 10 8 7 7 6 8 8 5 1 2 4 7 9 8 8 10 7 9 9 7 6 6 5 5 6 7 8 7 9 11 13 12 12 14 17 16 18 21
7 3 4 6 7 3 5 9 3 6 11 9 8 7 7 6 5 7 6 2 2 4 6 7 9 9 10 9 9 8 7 5 4 5 5 6 6 4 9 10 12 14 16 17 19 20 20 21 22
4 3 3 4 3 4 3 13 6 6 10 9 9 8 7 7 7 10 8 4 1 3 5 8 9 10 11 9 8 7 7 6 7 6 3 1 1 4 12 14 15 15 20 20 23 25 22 22 26
4 3 5 4 5 5 7 9 16 6 6 8 9 9 8 8 7 10 8 5 2 2 4 7 9 11 13 10 9 8 10 9 10 8 6 4 2 8 14 15 12 12 20 23 26 26 27 25 32
3 3 5 5 3 6 8 10 8 7 9 11 13 10 9 6 6 8 9 6 3 3 2 3 5 9 13 11 8 7 12 10 10 7 9 8 10 13 11 13 15 17 23 24 26 29 25 28 28
5 3 5 7 2 3 1 7 5 5 3 4 6 7 6 10 9 7 9 7 5 2 2 3 4 8 10 12 9 8 7 9 11 6 11 14 16 14 18 21 21 21 23 21 28 23 28 25 25
4 8 6 4 2 5 4 5 6 6 6 7 9 10 12 10 6 6 9 8 8 1 3 3 3 7 7 8 10 10 8 11 10 8 8 16 19 21 20 14 15 21 21 24 25 22 24 32 22
10 3 5 3 4 2 2 2 6 2 6 10 12 13 12 11 10 9 11 13 10 5 3 1 4 6 3 6 9 11 10 13 9 10 11 12 13 16 13 16 16 17 23 22 24 25 28 31 23
3 3 6 4 4 1 7 7 5 5 8 7 4 12 12 12 9 9 18 13 10 9 5 3 2 3 4 6 7 9 7 9 13 12 14 11 7 5 10 8 12 16 25 29 26 27 22 22 22
5 6 4 4 3 6 3 3 8 8 10 9 8 14 14 13 10 9 8 12 11 12 9 5 2 2 4 5 3 5 7 9 12 12 12 10 7 6 6 6 5 12 19 26 30 24 22 19 25
7 9 5 6 3 5 3 5 6 7 6 8 7 10 13 13 11 9 11 17 15 13 14 9 4 5 4 6 6 5 6 8 10 10 11 11 12 18 15 14 8 7 18 20 19 18 17 16 22
5 4 6 4 1 2 3 7 10 4 4 4 7 11 14 14 10 11 12 19 17 15 14 12 8 6 6 7 8 6 5 6 8 9 10 13 15 15 12 7 6 10 18 19 17 16 14 14 17
9 6 2 2 2 4 4 4 6 9 5 5 6 9 11 10 9 8 11 19 18 17 13 10 11 8 8 8 9 7 5 4 6 8 8 10 10 6 8 8 9 11 15 18 19 14 17 12 20
3 3 4 4 4 5 3 6 6 6 9 8 9 10 14 16 14 11 11 22 21 16 15 12 15 11 10 9 9 7 5 5 5 9 10 9 8 9 12 13 10 13 16 16 16 16 18 18 21
7 10 9 5 5 3 4 8 6 7 9 6 8 9 8 9 14 11 14 20 19 16 16 14 17 13 11 9 9 7 7 5 6 8 11 11 14 15 13 13 15 15 15 18 19 21 19 22 23
Wind_Direction
144 136 122 1 47 62 276 264 271 239 295 209 123 150 187 152 163 213 339 175 185 209 217 228 229 227 239 244 245 248 249 250 260 269 263 256 253 256 260 259 262 260 254 250 249 252 247 263 278
141 114 68 77 82 42 273 248 223 218 210 101 98 72 104 215 132 186 149 166 196 221 243 225 227 235 241 240 242 250 244 245 252 261 263 258 252 246 248 254 259 261 257 246 249 248 244 240 253
129 58 73 85 106 202 230 231 210 249 214 175 130 57 159 193 134 172 194 205 223 235 228 232 239 241 244 236 241 246 247 252 256 260 261 257 251 242 241 245 252 259 258 252 242 243 243 237 243
130 40 43 97 226 262 219 248 197 248 250 202 150 178 307 220 177 186 205 220 226 220 227 230 236 241 246 241 245 252 254 258 262 265 263 258 250 242 239 241 245 258 261 250 248 234 237 238 234
56 61 45 9 252 249 257 257 172 186 238 210 148 206 219 267 166 184 234 259 249 251 245 226 234 243 246 249 256 259 264 266 266 264 261 252 243 239 239 244 247 255 265 253 247 240 229 232 226
62 103 43 304 274 277 259 196 164 189 207 174 106 135 233 269 170 258 351 96 95 122 194 231 240 252 257 257 263 271 274 275 268 262 258 250 238 233 235 238 243 249 256 255 240 237 223 227 226
121 102 214 244 271 298 233 154 192 187 183 231 155 145 253 170 136 125 114 91 86 110 56 273 241 244 247 256 269 279 282 284 275 269 257 254 242 234 236 237 237 246 250 253 235 239 227 223 222
125 102 140 241 253 264 223 181 217 153 215 97 143 199 229 169 135 127 116 104 124 175 294 281 264 261 282 291 293 285 286 288 290 276 264 254 254 246 237 240 238 247 247 248 237 240 228 219 218
132 76 218 248 199 249 215 164 279 12 130 116 217 153 177 142 145 134 123 89 78 313 307 294 272 291 307 311 305 297 299 290 280 277 270 269 262 254 249 241 240 235 245 244 235 237 221 214 210
119 139 220 199 197 236 212 191 175 172 140 88 66 69 126 137 149 134 116 38 341 323 316 307 303 306 314 315 313 313 300 291 278 275 270 272 268 257 247 240 241 240 243 238 237 225 210 206 200
185 203 210 230 212 185 192 233 177 134 252 210 195 165 137 135 141 144 151 297 311 313 305 321 308 314 320 324 331 329 317 302 290 288 274 270 277 272 237 229 227 225 229 235 228 211 203 199 196
183 239 189 252 185 148 185 134 199 201 228 219 169 149 144 156 167 165 189 252 282 310 328 331 310 321 331 324 334 331 318 307 297 284 271 276 265 243 216 212 214 214 228 236 220 207 198 196 192
191 260 202 241 157 171 120 198 194 238 322 119 126 146 157 164 173 179 195 224 314 328 339 338 318 323 333 324 328 320 315 301 292 278 258 249 212 174 186 192 201 210 214 204 204 196 194 194 189
211 203 57 52 161 171 153 193 144 239 140 136 149 175 169 165 183 185 187 193 330 344 343 345 329 330 338 330 326 328 325 315 304 279 256 253 230 182 179 185 191 195 194 187 194 188 193 191 190
84 121 38 245 150 235 114 303 236 194 159 162 178 163 162 191 196 181 198 173 344 14 356 352 350 340 346 336 331 334 333 347 343 303 262 254 257 247 217 196 189 188 189 185 180 178 184 182 188
96 53 101 278 150 250 142 263 264 187 165 189 175 168 173 194 202 180 192 202 15 24 3 8 3 0 358 342 342 338 343 349 333 317 290 272 266 245 221 190 188 187 184 179 174 174 173 181 180
11 225 208 310 202 131 174 264 283 174 182 184 172 174 179 194 204 195 196 205 21 21 1 11 8 5 353 345 340 350 0 355 341 341 313 291 286 243 203 183 181 180 173 171 174 171 172 173 169
236 236 231 243 243 184 224 264 256 200 199 192 172 173 184 193 206 197 195 200 4 15 0 360 349 352 341 328 336 345 358 7 14 359 20 90 103 160 168 158 161 165 168 169 168 163 168 159 149
199 203 249 268 243 182 237 252 274 207 205 185 185 180 188 200 208 198 198 204 270 320 347 13 22 7 353 344 351 356 0 360 30 31 38 332 180 156 162 160 159 167 169 164 166 160 154 148 140
166 229 268 275 278 162 272 272 266 186 224 202 189 184 186 186 179 199 202 200 241 351 294 352 3 360 359 359 353 355 353 5 44 61 60 68 92 141 138 149 148 153 156 150 157 151 150 143 139
203 175 233 241 314 240 174 307 299 266 250 174 182 180 170 185 182 198 200 205 219 18 15 356 347 342 346 2 17 14 25 55 80 61 70 55 100 102 98 120 136 130 148 126 146 153 145 135 134
253 217 230 268 39 272 135 271 284 279 274 226 193 184 183 184 180 195 191 199 207 164 67 41 348 336 346 19 43 63 37 65 75 88 81 80 85 81 83 99 118 127 131 124 151 131 142 140 132
232 142 196 229 209 108 272 71 262 351 282 257 213 195 185 180 178 193 193 201 200 197 114 52 18 22 50 69 73 69 56 68 69 77 90 87 84 77 88 77 95 116 126 147 144 119 137 142 130
171 106 49 56 96 57 235 160 278 216 215 256 177 189 186 174 184 197 195 200 201 200 167 137 38 36 115 105 77 60 45 69 86 72 82 72 44 52 51 69 98 102 131 132 124 110 125 147 133
94 71 339 338 8 225 105 99 234 253 242 229 224 189 176 170 177 189 186 203 202 200 193 174 104 119 144 180 133 72 63 57 65 74 90 102 131 148 143 119 93 112 120 131 113 113 117 131 142
180 155 157 230 228 260 136 232 250 228 290 272 216 179 158 165 180 185 189 200 201 206 206 202 166 160 164 158 149 119 93 81 77 80 84 94 123 131 131 159 170 144 137 140 148 120 129 143 160
179 153 197 136 163 60 244 288 312 255 355 26 115 145 167 168 179 185 192 201 203 208 208 206 195 182 176 173 162 150 132 98 84 93 106 90 109 136 142 161 161 151 143 156 159 160 150 150 157
168 161 110 17 197 231 279 286 240 291 288 167 163 180 172 162 178 184 192 202 208 210 210 200 203 199 187 174 167 161 152 137 86 89 108 128 119 102 116 129 130 137 154 168 173 182 179 171 163
125 163 58 124 149 187 237 259 220 239 245 223 194 189 180 175 181 184 195 202 210 214 206 201 198 201 202 188 174 165 158 153 114 96 109 108 99 95 107 121 120 123 127 142 149 142 144 146 162
206 187 168 161 231 213 183 263 247 264 278 204 163 192 176 192 179 176 191 196 206 212 199 199 197 197 203 197 183 175 161 156 150 110 107 111 115 105 106 128 131 129 127 129 128 133 129 126 135